Location: Hermaringen
(48.5952°N, 10.2585°E)
Time: 14:42:12
(UTC+00:00)

Explorer 7 - Pass Details

Date: 22 February 2026
Orbit: 430 x 541 km, 50.2° (Epoch: 8 March)

Event Time Altitude Azimuth Distance (km) Brightness Sun altitude
Rises 18:02:48 0° 287° (WNW) 2,503 11.7 -12.5°
Reaches altitude 10° 18:05:00 10° 279° (W) 1,644 10.7 -12.9°
Maximum altitude 18:08:28 38° 211° (SSW) 763 7.8 -13.4°
Enters shadow 18:11:53 11° 143° (SE) 1,638 8.9 -14.0°
